Location: Akdamlar
(36.8729°N, 30.5187°E)
Time: 18:13:30
(UTC+00:00)

CZ-2C R/B - Pass Details

Date: 18 September 2020
Orbit: 391 x 588 km, 35.0° (Epoch: 26 October)

Event Time Altitude Azimuth Distance (km) Brightness Sun altitude
Rises 17:23:34 0° 260° (W) 2,459 5.8 -17.2°
Reaches altitude 10° 17:25:49 10° 257° (WSW) 1,552 4.5 -17.7°
Maximum altitude 17:29:17 61° 176° (S) 480 0.8 -18.3°
Enters shadow 17:29:36 57° 145° (SE) 497 0.8 -18.4°
